DW6386 Weather Reports


time (UTC)temp
C
wind
direction
speed
KPH
gust
KPH
rain 1hr
cm
rain 24hr
cm
rain mn
cm
humidity
%
barometer
mb
20260505041531 13 100 0.0 0.0 0.00 0.00 0.00 82 1011.7
20260505040023 13 100 0.0 0.0 0.00 0.00 0.00 81 1011.8
20260505034522 14 99 0.0 0.0 0.00 0.00 0.00 79 1011.8
20260505033022 15 94 0.0 0.0 0.00 0.00 0.00 78 1011.8
20260505031522 15 91 0.0 0.0 0.00 0.00 0.00 76 1011.7
20260505030021 16 88 0.0 0.0 0.00 0.00 0.00 72 1011.8
20260505024536 17 78 0.0 3.2 0.00 0.00 0.00 69 1011.9
20260505023021 17 72 0.0 0.0 0.00 0.00 0.00 69 1011.9
20260505021520 18 72 0.0 0.0 0.00 0.00 0.00 66 1011.9
20260505020019 18 58 0.0 4.8 0.00 0.00 0.00 64 1011.8
20260505014519 18 55 0.0 4.8 0.00 0.00 0.00 63 1011.6
20260505013022 19 46 0.0 8.0 0.00 0.00 0.00 63 1011.5
20260505011517 19 86 0.0 0.0 0.00 0.00 0.00 64 1011.4
20260505010016 19 46 0.0 6.4 0.00 0.00 0.00 64 1011.3
20260505004521 20 60 0.0 0.0 0.00 0.00 0.00 62 1011.2
20260505003016 21 60 0.0 0.0 0.00 0.00 0.00 59 1011.0
20260505001516 21 57 0.0 14.5 0.00 0.00 0.00 58 1010.9
20260505000028 22 56 0.0 8.0 0.00 0.00 0.00 56 1010.8
20260504234514 22 62 1.6 12.9 0.00 0.00 0.00 54 1010.8
20260504233020 22 5 1.6 11.3 0.00 0.00 0.00 53 1010.8
20260504231524 22 72 1.6 11.3 0.00 0.00 0.00 52 1010.8
20260504230016 23 43 4.8 12.9 0.00 0.00 0.00 49 1010.8
20260504224514 23 35 6.4 14.5 0.00 0.00 0.00 45 1010.8
20260504223010 23 24 3.2 11.3 0.00 0.00 0.00 47 1010.8
20260504221509 23 9 3.2 12.9 0.00 0.00 0.00 48 1010.8
20260504220016 23 27 3.2 12.9 0.00 0.00 0.00 48 1010.7
20260504214509 23 56 1.6 11.3 0.00 0.00 0.00 50 1010.8
20260504213009 23 45 1.6 9.7 0.00 0.00 0.00 50 1010.9
20260504211502 23 41 3.2 17.7 0.00 0.00 0.00 51 1011.1
20260504210111 24 54 1.6 17.7 0.00 0.00 0.00 50 1011.2
20260504204604 25 316 3.2 12.9 0.00 0.00 0.00 49 1011.2
20260504203056 25 307 0.0 11.3 0.00 0.00 0.00 50 1011.4
20260504201555 25 56 4.8 16.1 0.00 0.00 0.00 49 1011.7
20260504200051 25 61 3.2 16.1 0.00 0.00 0.00 51 1011.8
20260504194603 25 37 3.2 12.9 0.00 0.00 0.00 50 1012.2
20260504193046 24 52 1.6 14.5 0.00 0.00 0.00 51 1012.3
20260504191548 24 44 3.2 11.3 0.00 0.00 0.00 50 1012.6
20260504190048 23 34 1.6 11.3 0.00 0.00 0.00 51 1012.9
20260504184539 23 359 3.2 14.5 0.00 0.00 0.00 52 1013.1
20260504183032 23 304 0.0 8.0 0.00 0.00 0.00 54 1013.2
20260504181529 22 38 1.6 12.9 0.00 0.00 0.00 53 1013.4
20260504180033 22 39 1.6 8.0 0.00 0.00 0.00 53 1013.6
20260504174522 22 275 0.0 11.3 0.00 0.00 0.00 56 1013.8
20260504173021 21 240 1.6 11.3 0.00 0.00 0.00 55 1014.1
20260504171515 21 323 3.2 11.3 0.00 0.00 0.00 55 1014.3
20260504081548 5 123 0.0 0.0 0.00 0.00 0.00 92 1016.3